Barksdale AFB, LA

5:26 PM CDT on April 28, 2017 (GMT -0500)
Barksdale Air Force Base

Weather History for KBAD - July, 2013

Change the Weather History Date:

Wednesday, July 3, 2013

  Actual Average Record
Temperature  
Mean Temperature 75 °F -  
Max Temperature 88 °F 88 °F 100 °F (2011)
Min Temperature 63 °F 70 °F 63 °F (2013)
Cooling Degree Days 10    
Growing Degree Days 25 (Base 50)    
Moisture  
Dew Point 61 °F    
Average Humidity 63    
Maximum Humidity 94    
Minimum Humidity 39    
Precipitation  
Precipitation 0.00 in - - ()
Sea Level Pressure  
Sea Level Pressure 30.03 in    
Wind  
Wind Speed 4 mph (ENE)    
Max Wind Speed 9 mph    
Max Gust Speed -    
Visibility 10 miles    
Events      
Averages and records for this station are not official NWS values.
T = Trace of Precipitation, MM = Missing Value Source: NWS Daily Summary

Daily Weather History Graph

Daily Weather History Graph

Search for Another Location

Airport or City:

Trip Planner

Search our weather history database for the weather conditions in past years. The results will help you decide how hot, cold, wet, or windy it might be!

Date:

Astronomy

Jul. 03, 2013 Rise Set
Actual Time 6:11 AM CDT 8:25 PM CDT
Civil Twilight 5:43 AM CDT 8:54 PM CDT
Nautical Twilight 5:08 AM CDT 9:28 PM CDT
Astronomical Twilight 4:31 AM CDT 10:06 PM CDT
Moon 2:43 AM CDT (7/3) 4:42 PM CDT (7/3)
Length of Visible Light 15h 10m
Length of Day
14h 13m
Waning Crescent, 18% of the Moon is Illuminated
Jul 3
Waning Crescent
Jul 8
New
Jul 15
First Quarter
Jul 22
Full
Jul 29
Last Quarter

Hourly Weather History & Observations

Time (CDT) Temp. Heat Index Dew Point Humidity Pressure Visibility Wind Dir Wind Speed Gust Speed Precip Events Conditions
12:58 AM 67.1 °F - 62.2 °F 84% 30.04 in 10.0 mi East 3.5 mph - N/A   Clear
1:58 AM 66.4 °F - 62.2 °F 86% 30.03 in 10.0 mi East 2.3 mph - N/A   Clear
2:58 AM 64.4 °F - 60.8 °F 88% 30.03 in 10.0 mi East 3.5 mph - N/A   Clear
3:58 AM 64.8 °F - 61.9 °F 90% 30.03 in 10.0 mi Calm Calm - N/A   Clear
4:58 AM 63.0 °F - 61.3 °F 94% 30.03 in 10.0 mi Calm Calm - N/A   Clear
5:58 AM 63.3 °F - 61.7 °F 94% 30.04 in 10.0 mi Calm Calm - N/A   Clear
6:58 AM 63.7 °F - 61.5 °F 93% 30.04 in 10.0 mi North 2.3 mph - N/A   Clear
7:58 AM 69.6 °F - 64.6 °F 84% 30.06 in 10.0 mi Calm Calm - N/A   Clear
8:58 AM 74.1 °F - 64.2 °F 71% 30.08 in 10.0 mi NNE 5.8 mph - N/A   Clear
9:58 AM 78.3 °F - 63.9 °F 61% 30.09 in 10.0 mi NNE 5.8 mph - N/A   Clear
10:58 AM 82.0 °F 83.3 °F 63.3 °F 53% 30.08 in 10.0 mi Variable 4.6 mph - N/A   Clear
11:58 AM 84.4 °F 84.6 °F 60.6 °F 45% 30.07 in 10.0 mi NNE 8.1 mph - N/A   Clear
12:58 PM 86.4 °F 85.9 °F 59.7 °F 40% 30.06 in 10.0 mi Variable 5.8 mph - N/A   Clear
1:58 PM 84.4 °F 84.0 °F 59.0 °F 42% 30.04 in 10.0 mi ENE 6.9 mph - N/A   Mostly Cloudy
2:58 PM 84.9 °F 84.1 °F 57.2 °F 39% 30.03 in 10.0 mi Variable 2.3 mph - N/A   Scattered Clouds
3:58 PM 85.1 °F 84.4 °F 57.9 °F 40% 30.01 in 10.0 mi NE 8.1 mph - N/A   Partly Cloudy
4:56 PM 87.8 °F 87.6 °F 60.8 °F 40% 29.98 in 10.0 mi East 8.1 mph - N/A   Light Drizzle
4:58 PM 87.8 °F 87.6 °F 60.8 °F 40% 29.99 in 10.0 mi East 8.1 mph - N/A   Light Drizzle
4:59 PM 86.0 °F 86.1 °F 60.8 °F 43% 29.98 in 10.0 mi East 6.9 mph - N/A   Scattered Clouds
5:58 PM 83.8 °F 83.4 °F 58.6 °F 42% 29.98 in 10.0 mi ESE 9.2 mph - 0.00 in   Partly Cloudy
6:58 PM 82.6 °F 82.8 °F 59.7 °F 46% 29.98 in 10.0 mi East 6.9 mph - N/A   Clear
7:58 PM 80.2 °F 81.3 °F 61.9 °F 53% 29.99 in 10.0 mi East 4.6 mph - N/A   Clear
8:58 PM 77.5 °F - 60.8 °F 56% 29.99 in 10.0 mi East 2.3 mph - N/A   Clear
9:58 PM 73.6 °F - 61.7 °F 66% 30.01 in 10.0 mi East 2.3 mph - N/A   Clear
10:58 PM 71.1 °F - 62.1 °F 73% 30.02 in 10.0 mi East 4.6 mph - N/A   Clear
11:58 PM 71.6 °F - 61.2 °F 70% 30.01 in 10.0 mi East 4.6 mph - N/A   Clear